Preview of NWS' New Version of Forecast
This preview is not operational and should not be used for support decisions.

Regional Weather Roundup (RWR)

Issued by National Weather Service (NWS)

                            
000
ASUS43 KBIS 181210
RWRND 

NORTH DAKOTA REGIONAL WEATHER ROUNDUP
NATIONAL WEATHER SERVICE BISMARCK ND
700 AM CDT TUE JUN 18 2019

NOTE: "FAIR" INDICATES FEW OR NO CLOUDS BELOW 12,000 FEET WITH NO
SIGNIFICANT WEATHER AND/OR OBSTRUCTIONS TO VISIBILITY.


NDZ001>003-009>011-017-181300-
NORTHWEST NORTH DAKOTA
  
CITY           SKY/WX    TMP DP  RH WIND       PRES   REMARKS
WILLISTON      CLEAR     50  47  89 N5        30.04S                  
6HR MIN TEMP:  44; 6HR MAX TEMP:  54;                                

MINOT          SUNNY     45  43  93 NW3       30.04F                  
MINOT AFB      MOSUNNY   46  46  99 CALM      30.03F                  
$$
 
NDZ018>021-031>035-040>046-181300-
SOUTHWEST NORTH DAKOTA
  
CITY           SKY/WX    TMP DP  RH WIND       PRES   REMARKS
BISMARCK       PTCLDY    51  47  86 CALM      30.06S                  
6HR MIN TEMP:  48; 6HR MAX TEMP:  55;                                

DICKINSON      MOCLDY    50  46  86 E7        30.02F                  
GARRISON         N/A     47  46  97 CALM      30.05R                  
6HR MIN TEMP:  42; 6HR MAX TEMP:  49;                                

HETTINGER ARPT MOCLDY    53  49  86 E7        30.04S                  
$$
 
NDZ004>008-012>016-024-026-027-054-181300-
NORTHEAST NORTH DAKOTA
  
CITY           SKY/WX    TMP DP  RH WIND       PRES   REMARKS
GRAND FORKS    MOSUNNY   53  51  93 N3        30.02R                  
GRND FRKS AFB  MOSUNNY   52  51  97 N2        30.05R                  
DEVILS LAKE    SUNNY     53  52  96 NW5       30.06R                  
$$
 
NDZ022-023-025-028>030-036>039-047>053-181300-
SOUTHEAST NORTH DAKOTA
  
CITY           SKY/WX    TMP DP  RH WIND       PRES   REMARKS
FARGO          MOSUNNY   56  54  93 N7        30.00S                  
6HR MIN TEMP:  49; 6HR MAX TEMP:  56;                                

JAMESTOWN      SUNNY     55  53  93 NW6       30.03S                  
$$